Location: Unspecified
(0.0000°N, 0.0000°E)
Time: 22:48:25
(UTC+00:00)

Hubble Space Telescope - Pass Details

Date: 22 January 2022
Orbit: 534 x 538 km, 28.5° (Epoch: 27 January)

Event Time Altitude Azimuth Distance (km) Brightness Sun altitude
Rises 19:53:13 0° 250° (WSW) 2,667 5.8 -23.8°
Reaches altitude 10° 19:55:32 10° 256° (WSW) 1,776 4.5 -24.4°
Enters shadow 19:58:58 43° 306° (NW) 752 1.6 -25.2°
